カタログに戻る

INTELSAT 33E DEB

運用中MEO
NORAD 64396·DEBRIS· XX

打ち上げ Aug 24, 2016 から Guiana Space Centre

Loading…

次のパス (今後24時間)

TLE

最新Source: Space-Track

元期: Sep 13, 2026, 14:21 UTC

1 64396U 16053AA  26256.59826177  .00000001  00000-0  00000-0 0  9990
2 64396   1.8049  81.4040 0121677  65.3151 296.7568  0.98613057  6855

AllMySatでINTELSAT 33E DEBをリアルタイム追跡

Download on the App Store